Date String (YYYY-MM-DD hh:mm:ss) UTC,Instrument flags,Ambient pressure (hPa),Sample flow (lpm),Bypass flow (lpm),Sample temperature (°C),Ambient temperature (°C),ASC tube jacket temperature (°C),LED temperature (°C),Box temperature (°C),Sample RH (%),Span deviation,Mass concentration (μg/m³),Mass concentration (μg/m³),Mass concentration (μg/m³)
DateTimeUTC,F1_M11,P_M11,Q1_M11,Q2_M11,T1_M11,T2_M11,T3_M11,T4_M11,T5_M11,U1_M11,ZSPAN_M11,X0_M11,X2_M11,X1_M11
2021-08-29 08:00:00,,0833.5,5.00,0.00,29.7,28.7,00.0,38.7,31.5,26.3,0001.5,0018.26,0012.21,0011.49
2021-08-29 08:01:00,,0833.4,5.01,0.00,29.7,28.8,00.0,38.8,31.6,26.3,0001.6,0018.52,0012.27,0011.50
2021-08-29 08:02:00,,0833.4,5.00,0.00,29.8,28.9,00.0,38.8,31.6,26.2,0001.6,0018.10,0012.30,0011.52
2021-08-29 08:03:00,,0833.4,5.00,0.00,29.8,28.9,00.0,38.8,31.6,26.2,0001.5,0017.64,0012.28,0011.54
2021-08-29 08:04:00,,0833.4,5.00,0.00,29.8,29.0,00.0,38.8,31.6,26.2,0001.8,0017.58,0012.31,0011.58
2021-08-29 08:05:00,,0833.4,5.00,0.00,29.9,29.0,00.0,38.8,31.7,26.1,0001.8,0017.61,0012.31,0011.60
2021-08-29 08:06:00,,0833.4,5.01,0.00,29.9,29.1,00.0,38.9,31.7,26.1,0002.0,0017.58,0012.32,0011.59
2021-08-29 08:07:00,,0833.4,4.99,0.00,29.9,29.1,00.0,38.9,31.8,26.1,0002.4,0017.24,0012.29,0011.59
2021-08-29 08:08:00,,0833.4,5.00,0.00,29.9,29.1,00.0,38.9,31.7,26.1,0002.3,0016.87,0012.29,0011.58
2021-08-29 08:09:00,,0833.4,5.00,0.00,29.9,27.6,00.0,38.9,31.4,26.2,0002.3,0016.79,0012.32,0011.58
2021-08-29 08:10:00,,0833.4,5.00,0.00,29.7,26.4,00.0,38.9,31.0,26.3,0002.2,0016.36,0012.31,0011.58
2021-08-29 08:11:00,,0833.4,5.00,0.00,29.6,26.5,00.0,38.9,31.1,26.5,0002.2,0016.56,0012.26,0011.55
2021-08-29 08:12:00,,0833.3,4.99,0.00,29.6,26.9,00.0,38.8,31.1,26.6,0002.3,0017.24,0012.22,0011.55
2021-08-29 08:13:00,,0833.3,5.01,0.00,29.5,27.3,00.0,38.8,31.2,26.7,0002.2,0017.94,0012.20,0011.54
2021-08-29 08:14:00,,0833.3,5.01,0.00,29.6,27.6,00.0,38.8,31.2,26.6,0002.4,0018.66,0012.23,0011.53
2021-08-29 08:15:00,,0833.3,5.00,0.00,29.6,27.9,00.0,38.8,31.3,26.6,0002.1,0019.03,0012.21,0011.51
2021-08-29 08:16:00,,0833.3,5.00,0.00,29.6,28.1,00.0,38.7,31.3,26.5,0002.0,0019.05,0012.21,0011.48
2021-08-29 08:17:00,,0833.3,5.01,0.00,29.6,28.3,00.0,38.7,31.4,26.5,0001.8,0019.36,0012.21,0011.48
2021-08-29 08:18:00,,0833.3,4.99,0.00,29.7,28.4,00.0,38.8,31.4,26.4,0001.6,0019.61,0012.21,0011.46
2021-08-29 08:19:00,,0833.2,5.01,0.00,29.7,28.6,00.0,38.8,31.5,26.3,0001.5,0019.55,0012.22,0011.46
2021-08-29 08:20:00,,0833.2,5.01,0.00,29.7,28.7,00.0,38.8,31.5,26.3,0001.4,0019.52,0012.19,0011.44
2021-08-29 08:21:00,,0833.2,5.01,0.00,29.7,28.7,00.0,38.8,31.5,26.2,0001.4,0019.67,0012.19,0011.42
2021-08-29 08:22:00,,0833.2,5.01,0.00,29.8,28.8,00.0,38.8,31.6,26.1,0001.4,0019.59,0012.19,0011.40
2021-08-29 08:23:00,,0833.2,4.99,0.00,29.8,28.9,00.0,38.8,31.6,26.1,0001.4,0018.58,0012.18,0011.40
2021-08-29 08:24:00,,0833.2,5.01,0.00,29.8,29.0,00.0,38.8,31.7,26.1,0001.6,0018.37,0012.18,0011.40
2021-08-29 08:25:00,,0833.1,5.00,0.00,29.9,29.0,00.0,38.9,31.7,25.9,0001.7,0017.78,0012.15,0011.39
2021-08-29 08:26:00,,0833.2,5.00,0.00,29.9,29.1,00.0,38.9,31.7,25.9,0002.0,0017.37,0012.12,0011.38
2021-08-29 08:27:00,,0833.1,5.01,0.00,29.9,29.1,00.0,38.9,31.8,26.0,0002.1,0017.37,0012.09,0011.38
2021-08-29 08:28:00,,0833.1,5.01,0.00,29.9,29.1,00.0,38.9,31.8,25.9,0002.1,0017.82,0012.04,0011.35
2021-08-29 08:29:00,,0833.1,5.01,0.00,29.9,28.0,00.0,38.9,31.5,25.9,0002.1,0017.72,0012.09,0011.37
2021-08-29 08:30:00,,0833.1,5.00,0.00,29.8,26.5,00.0,38.9,31.1,26.1,0002.3,0017.62,0012.10,0011.38
2021-08-29 08:31:00,,0833.1,5.00,0.00,29.7,26.4,00.0,38.9,31.1,26.2,0002.6,0017.83,0012.17,0011.39
2021-08-29 08:32:00,,0833.1,5.00,0.00,29.6,26.7,00.0,38.8,31.1,26.4,0002.6,0018.13,0012.16,0011.39
2021-08-29 08:33:00,,0833.1,5.01,0.00,29.6,27.2,00.0,38.8,31.2,26.4,0002.2,0018.38,0012.18,0011.40
2021-08-29 08:34:00,,0833.1,4.99,0.00,29.6,27.5,00.0,38.8,31.3,26.4,0001.9,0019.24,0012.19,0011.38
2021-08-29 08:35:00,,0833.1,5.00,0.00,29.6,27.8,00.0,38.8,31.3,26.5,0001.7,0019.04,0012.22,0011.39
2021-08-29 08:36:00,,0833.1,5.01,0.00,29.6,28.1,00.0,38.8,31.4,26.5,0001.6,0018.99,0012.23,0011.40
2021-08-29 08:37:00,,0833.1,5.00,0.00,29.6,28.3,00.0,38.8,31.4,26.5,0001.4,0019.23,0012.24,0011.41
2021-08-29 08:38:00,,0833.0,4.99,0.00,29.7,28.4,00.0,38.8,31.4,26.5,0001.3,0019.66,0012.26,0011.43
2021-08-29 08:39:00,,0833.0,5.00,0.00,29.7,28.5,00.0,38.8,31.5,26.5,0001.4,0018.86,0012.29,0011.47
2021-08-29 08:40:00,,0833.0,5.01,0.00,29.7,28.6,00.0,38.8,31.5,26.5,0001.7,0018.79,0012.27,0011.47
2021-08-29 08:41:00,,0833.0,5.01,0.00,29.7,28.7,00.0,38.8,31.5,26.5,0001.8,0018.86,0012.29,0011.48
2021-08-29 08:42:00,,0833.0,5.00,0.00,29.8,28.8,00.0,38.8,31.6,26.4,0001.7,0018.65,0012.25,0011.49
2021-08-29 08:43:00,,0833.0,5.00,0.00,29.8,28.9,00.0,38.8,31.6,26.4,0001.7,0018.44,0012.32,0011.51
2021-08-29 08:44:00,,0833.0,5.00,0.00,29.8,28.9,00.0,38.8,31.7,26.3,0001.9,0018.14,0012.33,0011.50
2021-08-29 08:45:00,,0833.0,4.99,0.00,29.9,29.0,00.0,38.9,31.7,26.3,0001.9,0017.52,0012.34,0011.54
2021-08-29 08:46:00,,0833.1,5.00,0.00,29.9,29.1,00.0,38.9,31.7,26.3,0002.0,0018.31,0012.34,0011.54
2021-08-29 08:47:00,,0833.0,4.99,0.00,29.9,29.1,00.0,38.9,31.7,26.2,0001.9,0018.88,0012.34,0011.54
2021-08-29 08:48:00,,0833.0,5.01,0.00,30.0,29.2,00.0,38.9,31.8,26.3,0001.9,0018.61,0012.36,0011.55
2021-08-29 08:49:00,,0833.0,4.99,0.00,30.0,29.1,00.0,39.0,31.8,26.3,0002.0,0018.14,0012.37,0011.55
2021-08-29 08:50:00,,0833.0,5.00,0.00,29.9,27.6,00.0,38.9,31.4,26.3,0002.0,0018.47,0012.41,0011.56
2021-08-29 08:51:00,,0833.1,5.01,0.00,29.8,26.4,00.0,38.9,31.1,26.7,0001.9,0018.90,0012.42,0011.58
2021-08-29 08:52:00,,0833.0,4.99,0.00,29.7,26.5,00.0,38.9,31.1,26.8,0001.7,0019.33,0012.39,0011.57
2021-08-29 08:53:00,,0833.0,5.00,0.00,29.6,26.9,00.0,38.9,31.2,26.9,0001.6,0019.52,0012.44,0011.60
2021-08-29 08:54:00,,0833.0,5.00,0.00,29.6,27.3,00.0,38.8,31.2,27.0,0001.8,0019.78,0012.44,0011.62
2021-08-29 08:55:00,,0833.0,5.01,0.00,29.6,27.6,00.0,38.8,31.3,27.0,0001.9,0019.85,0012.43,0011.63
2021-08-29 08:56:00,,0833.0,5.00,0.00,29.6,27.9,00.0,38.8,31.3,27.0,0001.9,0019.60,0012.42,0011.62
2021-08-29 08:57:00,,0833.0,4.99,0.00,29.6,28.1,00.0,38.8,31.4,26.9,0001.8,0019.43,0012.41,0011.62
2021-08-29 08:58:00,,0833.0,4.99,0.00,29.7,28.3,00.0,38.8,31.4,26.9,0002.0,0019.12,0012.41,0011.61
2021-08-29 08:59:00,,0833.0,5.01,0.00,29.7,28.5,00.0,38.8,31.5,26.8,0002.3,0019.05,0012.41,0011.64
